This is the latest recevied weather packets stored in our database for station/object NC4M. If no packets are shown the sender has not sent any weather packets the latest 10 day(s).
| Time | Temp. | Humidity | Pressure | Rain* | Wind** | Luminosity | Snow |
|---|---|---|---|---|---|---|---|
| 1787780891 | 33.33° C | 46% | 1015.6 hPa | 0 mm | - | 416 W/m² | - |
| 1787780586 | 33.33° C | 49% | 1015.6 hPa | 0 mm | - | 442 W/m² | - |
| 1787780281 | 33.33° C | 46% | 1015.4 hPa | 0 mm | - | 459 W/m² | - |
| 1787779977 | 33.33° C | 44% | 1015.6 hPa | 0 mm | - | 466 W/m² | - |
| 1787779672 | 33.89° C | 42% | 1015.5 hPa | 0 mm | - | 496 W/m² | - |
| 1787779370 | 33.89° C | 47% | 1015.7 hPa | 0 mm | - | 519 W/m² | - |
| 1787779066 | 33.89° C | 42% | 1015.6 hPa | 0 mm | - | 535 W/m² | - |
| 1787778761 | 33.33° C | 44% | 1015.6 hPa | 0 mm | - | 552 W/m² | - |
| 1787778457 | 33.33° C | 46% | 1015.6 hPa | 0 mm | - | 567 W/m² | - |
| 1787778152 | 33.33° C | 52% | 1015.7 hPa | 0 mm | - | 583 W/m² | - |
| 1787777852 | 32.78° C | 47% | 1015.8 hPa | 0 mm | - | 599 W/m² | - |
| 1787777548 | 33.33° C | 45% | 1015.6 hPa | 0 mm | - | 618 W/m² | - |
| 1787777248 | 32.78° C | 47% | 1015.8 hPa | 0 mm | - | 634 W/m² | - |
| 1787776947 | 32.78° C | 48% | 1015.5 hPa | 0 mm | - | 645 W/m² | - |
| 1787776647 | 32.22° C | 53% | 1015.8 hPa | 0 mm | - | 642 W/m² | - |
| 1787776346 | 32.78° C | 53% | 1015.7 hPa | 0 mm | - | 352 W/m² | - |
| 1787776044 | 32.78° C | 53% | 1015.8 hPa | 0 mm | - | 301 W/m² | - |
| 1787775739 | 32.22° C | 50% | 1015.9 hPa | 0 mm | - | 245 W/m² | - |
| 1787775438 | 32.22° C | 48% | 1016 hPa | 0 mm | - | 179 W/m² | - |
| 1787775136 | 32.22° C | 52% | 1016.1 hPa | 0 mm | - | 161 W/m² | - |
| 1787774831 | 32.22° C | 50% | 1016.2 hPa | 0 mm | - | 118 W/m² | - |
| 1787774531 | 32.22° C | 56% | 1016.3 hPa | 0 mm | - | 88 W/m² | - |
| 1787774230 | 32.22° C | 54% | 1016.3 hPa | 0 mm | - | 100 W/m² | - |
| 1787773929 | 31.67° C | 53% | 1016.3 hPa | 0 mm | - | 357 W/m² | - |
| 1787773628 | 31.67° C | 54% | 1016.6 hPa | 0 mm | - | 109 W/m² | - |
* Rain latest hour (hover to see other rain measurements)
** Current wind speed in m/s (hover to see current wind gust speed)